CDT,Max TemperatureF,Mean TemperatureF,Min TemperatureF,Max Dew PointF,MeanDew PointF,Min DewpointF,Max Humidity, Mean Humidity, Min Humidity, Max Sea Level PressureIn, Mean Sea Level PressureIn, Min Sea Level PressureIn, Max VisibilityMiles, Mean VisibilityMiles, Min VisibilityMiles, Max Wind SpeedMPH, Mean Wind SpeedMPH, Max Gust SpeedMPH,PrecipitationIn, CloudCover, Events, WindDirDegrees
2010-10-1,74,58,41,52,45,39,100,69,38,30.22,30.15,30.04,10,8,2,12,4,35,0.00,0,,245
2010-10-2,60,50,39,48,41,34,83,62,40,30.39,30.25,30.03,10,10,10,24,12,30,0.00,4,,9
2010-10-3,60,48,35,38,34,32,92,64,36,30.49,30.43,30.39,10,10,10,13,3,17,0.00,0,,21
2010-10-4,63,48,33,40,35,32,96,65,34,30.48,30.41,30.36,10,10,10,16,2,36,0.00,0,,110
2010-10-5,68,52,35,42,39,33,92,63,34,30.46,30.38,30.31,10,10,9,12,4,16,0.00,0,,195
2010-10-6,77,60,42,54,47,39,89,63,36,30.30,30.20,30.10,10,10,4,13,6,29,0.00,0,,245
2010-10-7,77,60,43,51,43,37,93,59,25,30.25,30.19,30.12,10,10,10,10,3,38,0.00,0,,4
2010-10-8,81,61,41,59,50,39,96,69,42,30.16,30.10,30.03,10,10,2,13,5,24,0.00,0,,200
2010-10-9,83,67,50,55,51,44,93,60,26,30.06,30.02,29.98,10,10,8,15,5,20,0.00,0,,206
2010-10-10,80,65,50,53,49,46,86,59,32,29.99,29.93,29.88,10,10,7,10,4,31,0.00,0,,222
2010-10-11,72,65,57,56,52,50,86,70,53,29.93,29.89,29.86,10,10,10,14,6,18,T,4,,311
2010-10-12,77,67,56,54,52,50,86,63,39,30.09,29.97,29.88,10,10,10,18,7,24,T,3,Rain,360
2010-10-13,67,54,41,49,38,30,82,54,26,30.27,30.22,30.10,10,10,10,21,9,28,0.00,1,,335
2010-10-14,71,53,35,40,35,30,92,59,25,30.26,30.12,29.96,10,10,10,18,7,24,0.00,0,,273
2010-10-15,68,55,42,38,35,32,76,51,26,30.18,30.12,30.01,10,10,6,8,4,26,0.00,0,,315
2010-10-16,80,61,41,50,41,33,71,51,30,30.13,30.07,29.98,10,8,2,18,9,24,0.00,0,,221
2010-10-17,69,57,44,40,36,33,65,47,28,30.18,30.10,30.02,10,10,10,16,6,,0.00,0,,40
2010-10-18,67,54,41,39,35,33,73,53,32,30.09,30.03,30.00,10,10,10,15,8,21,0.02,1,,25
2010-10-19,64,47,30,38,33,29,92,62,32,30.12,30.06,29.99,10,10,10,14,4,17,0.00,0,,258
2010-10-20,71,57,43,40,35,32,70,48,25,29.97,29.94,29.89,10,10,10,18,8,30,0.00,0,,258
2010-10-21,65,51,37,34,30,25,82,52,22,30.12,30.06,29.95,10,10,10,12,4,15,0.00,0,,326
2010-10-22,77,58,38,48,38,28,62,47,31,30.11,30.04,29.96,10,10,10,16,9,22,T,3,,146
2010-10-23,76,66,55,61,56,47,93,77,60,29.95,29.88,29.78,10,8,2,20,10,26,0.47,7,Rain-Thunderstorm,145
2010-10-24,67,60,53,56,54,52,93,78,63,29.81,29.71,29.64,10,10,10,18,9,28,0.00,5,,205
2010-10-25,73,60,47,60,51,46,100,77,53,29.63,29.46,29.04,10,4,0,28,13,41,0.02,1,Fog-Rain,166
2010-10-26,69,59,49,61,40,30,87,60,32,29.55,29.29,28.99,10,10,10,28,16,41,0.02,5,Rain,241
2010-10-27,64,52,40,32,28,23,60,41,21,30.09,29.77,29.57,10,10,10,35,14,48,0.00,0,,255
2010-10-28,50,40,30,30,28,23,75,59,42,30.46,30.33,30.11,10,10,10,18,10,29,0.03,4,,297
2010-10-29,61,42,22,29,24,19,88,56,23,30.45,30.30,30.06,10,10,10,15,6,22,0.00,0,,199
2010-10-30,67,54,41,39,33,24,82,57,32,30.04,29.95,29.88,10,10,9,18,8,24,0.00,0,,254
2010-10-31,55,45,34,36,33,31,92,68,43,30.26,30.15,30.03,10,10,8,17,11,24,0.00,0,,57